If you wish to contribute or participate in the discussions about articles you are invited to join SKYbrary as a registered user

 Actions

Aktobe / Aktyubinsk Airport

From SKYbrary Wiki

UATT
Airport
ICAO: UATT – IATA: AKX
Summary
Name Aktobe / Aktyubinsk Airport
Region Asia and Pacific
Territory Kazakhstan KZ.gif
Location Aktobe
Serving Aktobe
Elevation 224.942 m
738 ft
738 ft224.942 m
Coordinates 50° 14' 59.42" N, 57° 12' 8.56" E
Runways
Designator Length Width Surface ROPS
13/31 3097 m10,160.761 ft
60 m196.85 ft
CON /


METAR
Observation UATT 260800Z 04005MPS CAVOK 24/09 Q1014 R31/0///60 NOSIG RMK QFE740/0987
Station Aktjubinsk
Date/Time 26 June 2019 08:00:00
Wind direction 40°
Wind speed kts
Lowest cloud amount clouds and visibility OK
Temperature 24°C
Dew point 9°C
Humidity 38%
QNH 1014 hPa
Weather condition n/a

BS
Tag(s) Bird Strike
CFIT
Tag(s) Altimeter Temperature Error Correction

Aktobe Airport

ICAO: UATT IATA: AKX

Description

International airport serving the city of Aktobe.

Climatology

Cold Semi-arid climate (Köppen climate classification BSk). - Hot, sometimes extremely hot summers and cold, sometimes very cold winters. Some snowfall during the winter. Areas featuring cold semi-arid climates are sometimes subject to major temperature swings during a 24 hour period.

Maps

Terrain

Loading map...

Airport Layout

Loading map...


Accidents & Serious Incidents at or in vicinity of UATT

None on SKYbrary